Date,TemperatureHighF,TemperatureAvgF,TemperatureLowF,DewpointHighF,DewpointAvgF,DewpointLowF,HumidityHigh,HumidityAvg,HumidityLow,PressureMaxIn,PressureMinIn,WindSpeedMaxMPH,WindSpeedAvgMPH,GustSpeedMaxMPH,PrecipitationSumIn
2013-2-23,37,31,25,28,21,-100,84,70,54,29.92,29.75,4,-17,0,0.07
2013-2-24,41,33,27,27,25,20,89,73,56,29.91,29.54,6,2,0,0.22
2013-2-25,41,31,19,31,25,16,90,78,57,29.96,29.47,6,2,0,0.00
2013-2-26,36,27,14,29,22,10,90,80,65,29.98,29.87,4,2,0,0.09
2013-2-27,39,30,21,27,21,-54,91,72,45,30.01,29.87,3,1,0,0.02
2013-2-28,36,28,16,30,24,12,91,82,67,30.07,29.85,7,2,0,0.00
2013-3-1,43,36,30,37,32,28,98,87,73,29.92,29.89,4,1,0,0.00
2013-3-2,41,34,30,37,32,27,98,95,85,29.79,29.66,5,1,0,0.42
2013-3-3,34,29,27,30,26,23,98,88,78,30.11,29.79,6,2,0,0.01
2013-3-4,41,30,21,32,26,19,98,87,67,30.12,29.97,0,0,0,0.09
2013-3-5,39,29,21,28,23,19,97,79,55,29.98,29.72,4,1,0,0.24
2013-3-6,36,30,25,28,25,21,91,83,71,29.72,29.57,3,0,0,0.08
2013-3-7,37,29,19,25,20,15,88,71,48,29.93,29.68,3,0,0,0.00
2013-3-8,43,32,21,28,22,17,85,71,42,30.02,29.90,4,0,0,0.00
2013-3-9,46,30,14,29,21,10,88,70,43,30.16,30.02,4,0,0,0.00
2013-3-10,45,32,21,27,24,16,90,72,43,30.18,30.05,5,1,0,0.00
2013-3-11,37,27,12,26,16,8,88,64,42,30.25,29.96,4,1,0,0.00
2013-3-12,43,34,28,36,30,25,90,86,76,29.95,29.59,5,2,0,0.22
2013-3-13,55,43,32,36,32,29,90,68,41,29.79,29.61,6,1,0,0.00
2013-3-14,52,42,36,38,34,28,87,73,50,29.80,29.65,5,2,0,0.16
2013-3-15,50,38,28,32,28,25,90,70,38,29.91,29.75,4,0,0,0.00
2013-3-16,43,33,27,34,29,24,98,83,64,29.81,29.43,5,0,0,0.00
2013-3-17,41,27,18,28,23,14,97,82,59,29.79,29.54,5,1,0,0.37
2013-3-18,36,27,18,27,21,14,91,79,54,29.95,29.72,3,0,0,0.18
2013-3-19,39,26,9,24,17,4,88,70,50,29.98,29.41,5,2,0,0.08
2013-3-20,52,38,32,37,29,23,98,70,43,29.41,29.04,7,3,0,0.01
2013-3-21,34,29,18,32,19,14,98,67,51,29.90,29.42,5,1,0,0.21
2013-3-22,34,24,14,23,17,10,89,75,45,30.14,29.90,5,1,0,0.01
2013-3-23,39,23,9,20,11,3,86,62,30,30.17,30.08,5,1,0,0.97
2013-3-24,45,29,12,20,15,7,81,57,32,30.12,29.95,6,1,0,0.00
2013-3-25,50,37,30,27,22,18,68,54,40,29.97,29.81,5,1,0,0.00
2013-3-26,50,38,25,28,23,18,80,58,37,29.86,29.79,6,1,0,0.00
2013-3-27,50,38,30,28,25,24,78,61,42,29.88,29.84,0,0,0,0.00
2013-3-28,55,40,27,31,25,22,87,60,31,29.94,29.88,4,1,0,0.00
2013-3-29,54,40,27,33,26,22,86,60,33,30.11,29.94,5,1,0,0.00
2013-3-30,57,41,25,31,25,21,86,57,28,30.19,30.04,5,1,0,0.97
2013-3-31,59,41,27,34,27,22,85,60,33,30.07,29.92,5,1,0,0.00
2013-4-1,68,46,27,36,28,-42,87,56,24,29.92,29.77,5,1,0,0.00
2013-4-2,59,43,32,41,32,25,89,66,37,29.94,29.84,3,0,0,0.00
2013-4-3,54,40,28,33,27,21,98,64,32,30.04,29.88,8,1,0,0.00
2013-4-4,55,40,30,42,32,19,98,73,44,29.88,29.42,6,1,0,0.37
2013-4-5,52,42,34,43,40,33,98,91,61,29.56,29.39,4,1,0,0.26
2013-4-6,54,41,34,40,35,30,98,83,41,29.63,29.42,5,2,0,0.19
2013-4-7,50,37,32,37,33,29,98,87,53,29.68,29.51,5,1,0,0.24
2013-4-8,45,34,27,29,24,22,88,68,45,30.05,29.69,5,2,0,0.00
2013-4-9,46,37,23,38,30,19,88,76,55,30.06,29.79,4,2,0,0.01
2013-4-10,48,41,36,39,35,32,98,80,62,29.81,29.58,6,2,0,0.26
2013-4-11,45,35,28,35,25,17,98,69,38,30.05,29.81,6,1,0,0.17
2013-4-12,43,36,28,32,26,20,76,68,58,29.93,29.28,6,2,0,0.00
2013-4-13,45,36,28,26,22,17,85,61,35,29.73,29.29,8,2,0,0.00
2013-4-14,46,36,28,34,28,21,89,74,44,29.82,29.73,5,1,0,0.04
2013-4-15,46,36,27,29,24,20,98,66,38,30.08,29.83,5,1,0,0.00
2013-4-16,52,35,21,24,19,13,86,58,26,30.24,30.08,6,1,0,0.00
2013-4-17,55,41,25,31,24,18,79,55,31,30.18,30.04,4,1,0,0.00
2013-4-18,55,44,36,40,33,28,90,68,45,30.10,29.78,5,1,0,0.08
2013-4-19,55,44,37,44,37,33,88,77,51,29.81,29.74,4,1,0,0.04
2013-4-20,45,38,28,33,19,10,75,49,28,30.07,29.82,9,2,0,0.00
2013-4-21,46,34,23,16,13,2,66,46,17,30.26,30.07,7,2,0,0.00
2013-4-22,55,39,19,21,12,4,77,39,12,30.38,30.20,6,1,0,0.02
2013-4-23,54,40,32,37,30,21,98,67,41,30.26,30.16,8,2,0,0.07
2013-4-24,63,44,27,32,27,15,90,58,20,30.21,29.79,5,1,0,0.00
2013-4-25,66,49,32,43,36,27,86,62,37,29.84,29.78,5,1,0,0.00
2013-4-26,63,51,43,42,35,28,78,55,33,29.88,29.80,7,1,0,0.00
2013-4-27,64,50,41,35,29,21,67,46,20,29.82,29.63,9,2,0,0.00
2013-4-28,55,43,30,33,25,21,81,53,29,29.83,29.51,10,2,0,0.01
2013-4-29,45,33,28,31,25,20,90,72,48,29.85,29.51,8,2,0,0.02
2013-4-30,48,35,23,25,20,12,86,58,25,30.15,29.86,6,1,0,0.00
2013-5-1,61,42,23,24,16,10,67,38,15,30.36,30.15,4,1,0,0.00
2013-5-2,55,42,30,42,33,22,98,72,39,30.36,30.28,5,0,0,0.21
2013-5-3,70,48,36,43,37,31,98,70,30,30.38,30.26,5,1,0,0.14
2013-5-4,73,52,30,43,36,28,98,61,29,30.32,30.09,5,1,0,0.00
2013-5-5,82,58,36,46,35,20,98,53,11,30.09,29.84,5,1,0,0.44
2013-5-6,88,62,37,45,35,25,86,46,11,29.85,29.64,6,1,0,0.00
2013-5-7,81,60,45,33,29,18,59,34,11,29.92,29.77,4,1,0,0.00
2013-5-8,82,58,34,37,27,12,90,44,8,29.98,29.89,4,1,0,0.00
2013-5-9,82,60,36,37,25,-1,84,38,4,30.10,29.96,8,1,0,0.44
2013-5-10,86,61,36,41,30,12,86,41,8,30.13,29.94,5,1,0,0.00
2013-5-11,77,61,39,44,38,28,80,46,18,30.03,29.81,5,2,0,0.00
2013-5-12,75,63,52,51,40,29,71,44,21,29.83,29.70,7,3,0,0.88
2013-5-13,63,51,41,43,38,33,98,64,33,29.78,29.61,7,1,0,0.18
2013-5-14,46,42,41,42,41,39,98,95,79,29.95,29.79,2,0,0,0.24
2013-5-15,50,44,41,42,41,39,98,89,73,29.89,29.84,4,1,0,0.21
2013-5-16,68,49,36,46,38,29,98,71,26,29.90,29.76,6,1,0,0.00
2013-5-17,64,50,34,49,40,31,98,72,45,29.81,29.73,4,1,0,0.18
2013-5-18,64,53,43,44,39,34,98,64,35,30.03,29.77,6,1,0,0.00
2013-5-19,68,53,43,41,37,31,84,58,27,30.22,30.04,7,1,0,0.95
2013-5-20,61,49,37,39,35,30,85,60,39,30.14,29.79,6,1,0,0.00
2013-5-21,52,46,43,50,42,35,98,88,74,29.80,29.53,3,1,0,0.89
2013-5-22,59,49,41,51,45,40,98,87,64,29.79,29.59,6,1,0,0.57
2013-5-23,50,46,37,48,40,35,98,82,59,29.86,29.74,4,1,0,0.00
2013-5-24,59,46,32,42,37,32,98,74,38,29.85,29.75,3,1,0,0.01
2013-5-25,59,47,43,49,44,42,98,90,69,29.82,29.79,5,1,0,0.63
2013-5-26,63,49,43,46,43,38,98,82,44,29.82,29.75,5,1,0,0.13
2013-5-27,63,50,41,47,43,40,98,79,50,29.79,29.59,5,1,0,0.17
2013-5-28,68,53,45,49,44,40,98,76,41,29.63,29.55,5,2,0,0.11
2013-5-29,66,54,43,45,41,38,84,64,42,29.63,29.55,4,1,0,0.00
2013-5-30,59,48,43,48,44,40,98,86,59,30.02,29.64,3,0,0,0.70
2013-5-31,61,48,41,49,43,40,98,83,50,30.17,30.02,4,1,0,0.40
2013-6-1,61,48,36,44,40,35,98,77,48,30.12,29.95,5,1,0,0.00
2013-6-2,72,52,43,49,44,40,98,76,36,29.99,29.90,8,2,0,0.09
2013-6-3,73,54,39,48,44,39,98,73,38,30.00,29.93,6,1,0,0.00
2013-6-4,79,60,41,49,42,36,98,59,21,30.04,29.87,4,1,0,0.00
2013-6-5,75,59,48,56,45,32,87,62,30,29.97,29.89,3,1,0,0.28
2013-6-6,72,50,37,48,40,35,98,75,32,29.99,29.86,3,1,0,0.00
2013-6-7,70,60,50,57,48,43,87,66,43,29.90,29.70,4,1,0,0.26
2013-6-8,63,53,41,49,43,40,98,72,46,29.94,29.89,5,1,0,0.01
2013-6-9,64,51,43,48,43,40,98,78,44,29.91,29.84,5,1,0,0.85
2013-6-10,73,52,36,46,41,35,98,70,28,29.92,29.76,4,1,0,0.01
2013-6-11,70,52,41,52,44,38,98,79,36,29.84,29.69,5,1,0,0.98
2013-6-12,68,54,45,47,43,35,98,70,34,29.96,29.85,6,1,0,0.57
2013-6-13,66,52,39,47,43,36,98,72,43,29.98,29.90,5,1,0,0.00
2013-6-14,68,54,46,50,46,43,93,74,46,29.97,29.91,4,1,0,0.01
2013-6-15,79,57,39,51,45,39,98,70,30,29.99,29.93,7,1,0,0.00
2013-6-16,77,57,45,51,47,44,98,72,35,30.04,29.98,5,1,0,0.00
2013-6-17,59,56,54,52,51,49,90,83,73,29.81,29.78,2,0,0,0.00
2013-6-18,73,56,45,54,49,44,98,78,39,29.83,29.74,4,0,0,0.11
2013-6-19,55,52,50,55,51,49,98,97,90,29.77,29.70,4,1,0,1.40
2013-6-20,72,58,52,62,55,51,98,92,70,29.83,29.63,4,1,0,0.24
2013-6-21,79,62,52,58,52,47,98,73,35,29.95,29.83,5,1,0,0.09
2013-6-22,72,59,50,58,52,47,98,79,49,29.91,29.82,7,1,0,0.18
2013-6-23,63,51,45,54,48,44,98,92,71,29.83,29.54,4,0,0,0.00
2013-6-24,68,58,46,54,50,45,98,77,55,29.53,29.44,5,1,0,0.00
2013-6-25,72,58,50,53,48,40,98,72,40,29.67,29.52,8,1,0,0.35
2013-6-26,75,59,45,48,44,40,94,61,35,29.94,29.68,6,1,0,0.00
2013-6-27,70,59,46,51,46,41,84,65,48,30.13,29.95,4,1,0,0.00
2013-6-28,77,64,50,57,51,46,98,67,35,30.18,30.02,6,1,0,0.00
2013-6-29,86,70,59,58,53,49,77,58,31,30.07,29.94,4,1,0,0.00
2013-6-30,90,73,55,58,51,42,88,52,20,30.02,29.95,5,1,0,0.00
2013-7-1,95,76,55,59,54,50,84,50,23,30.01,29.82,5,1,0,0.00
2013-7-2,90,73,59,59,54,38,79,54,20,30.00,29.83,5,1,0,0.00
2013-7-3,86,64,50,48,45,40,81,54,22,30.08,29.87,5,1,0,0.00
2013-7-4,77,63,55,51,45,40,75,54,33,29.91,29.85,6,1,0,0.00
2013-7-5,77,60,46,45,40,37,75,50,26,29.94,29.84,6,1,0,0.00
2013-7-6,75,55,43,48,42,38,87,65,31,29.98,29.88,3,1,0,0.00
2013-7-7,82,61,43,50,43,32,98,59,17,29.92,29.82,5,1,0,0.43
2013-7-8,82,62,43,50,44,39,98,58,23,29.95,29.88,6,1,0,0.00
2013-7-9,84,66,50,60,48,42,91,56,26,30.01,29.87,6,1,0,0.01
2013-7-10,81,64,48,54,47,37,98,59,23,29.90,29.66,7,1,0,0.00
2013-7-11,63,52,43,50,45,39,98,79,46,29.84,29.69,5,1,0,1.07
2013-7-12,72,54,41,44,40,33,98,64,25,29.92,29.84,7,1,0,0.00
2013-7-13,73,56,45,46,42,40,90,63,30,30.11,29.92,5,1,0,0.00
2013-7-14,63,51,43,52,46,40,98,84,55,30.05,29.93,6,1,0,0.78
2013-7-15,77,55,41,51,45,40,98,73,33,30.07,30.03,6,1,0,0.00
2013-7-16,82,61,41,52,44,37,98,62,20,30.09,29.92,5,1,0,0.00
2013-7-17,72,61,52,55,51,46,88,70,48,30.10,29.93,5,1,0,0.00
2013-7-18,86,67,54,57,53,49,98,66,30,30.13,30.02,5,1,0,0.00
2013-7-19,88,69,54,53,47,39,85,51,20,30.08,29.91,5,1,0,0.00
2013-7-20,88,68,50,52,48,44,98,56,22,29.92,29.73,5,1,0,0.00
2013-7-21,88,69,54,51,47,42,77,49,20,29.85,29.71,4,1,0,0.13
2013-7-22,84,68,54,51,46,42,71,49,25,29.93,29.72,5,1,0,0.00
2013-7-23,88,67,50,51,45,39,89,53,18,30.03,29.91,4,1,0,0.00
2013-7-24,91,69,50,52,46,37,85,49,16,30.00,29.90,6,1,0,0.00
2013-7-25,90,70,50,49,43,32,88,46,13,29.99,29.90,5,1,0,0.00
2013-7-26,82,66,54,44,40,36,55,41,22,30.05,29.90,7,1,0,0.00
2013-7-27,73,59,45,44,40,36,77,52,29,30.09,29.93,6,2,0,0.00
2013-7-28,72,58,45,49,44,40,86,63,40,29.98,29.94,5,1,0,0.00
2013-7-29,77,58,43,46,40,33,85,56,20,30.00,29.94,6,1,0,0.00
2013-7-30,86,64,45,48,43,40,90,53,23,30.10,30.00,5,1,0,0.00
2013-7-31,88,66,45,50,44,38,98,53,18,30.14,29.96,5,1,0,0.00
2013-8-1,88,67,46,52,47,42,87,54,22,29.97,29.81,4,1,0,0.44
2013-8-2,82,65,55,59,54,49,90,71,39,29.97,29.87,6,1,0,0.01
2013-8-3,82,65,57,61,57,54,98,79,41,30.20,29.94,5,1,0,0.34
2013-8-4,82,65,50,59,53,45,98,71,28,30.02,29.91,4,1,0,0.01
2013-8-5,90,68,50,55,48,38,98,58,17,29.96,29.84,4,1,0,0.00
2013-8-6,86,66,54,56,50,46,80,60,28,29.95,29.86,3,0,0,0.00
2013-8-7,86,68,50,55,49,42,98,58,23,29.94,29.84,4,1,0,0.00
2013-8-8,91,69,52,54,50,43,88,55,19,29.97,29.87,5,1,0,0.00
2013-8-9,91,71,54,55,50,37,85,53,15,29.95,29.81,5,1,0,0.00
2013-8-10,93,72,52,53,47,34,86,48,13,29.91,29.81,5,1,0,0.00
2013-8-11,90,66,52,60,53,46,98,69,26,29.93,29.84,4,1,0,0.30
2013-8-12,86,66,50,58,50,38,98,64,20,29.96,29.86,7,1,0,0.82
2013-8-13,84,67,50,53,45,36,85,50,18,30.01,29.88,5,1,0,0.00
2013-8-14,86,66,46,48,40,29,85,47,13,29.91,29.79,8,1,0,0.80
2013-8-15,81,66,54,58,50,41,89,59,28,29.86,29.79,6,1,0,0.08
2013-8-16,77,64,52,54,50,46,90,62,38,29.88,29.82,5,1,0,0.01
2013-8-17,72,60,54,60,55,48,98,83,59,29.89,29.84,6,1,0,1.10
2013-8-18,73,58,48,53,48,41,98,73,34,29.90,29.82,10,1,0,0.00
2013-8-19,77,59,50,53,43,34,80,58,24,29.95,29.82,5,1,0,0.00
2013-8-20,70,54,41,44,38,34,85,58,29,30.09,29.95,6,1,0,0.00
2013-8-21,79,57,36,44,38,33,98,58,19,30.13,29.96,5,1,0,0.00
2013-8-22,88,65,45,48,42,35,84,49,17,29.96,29.73,4,1,0,0.00
2013-8-23,81,62,46,54,47,42,88,62,31,29.75,29.61,6,1,0,0.00
2013-8-24,73,61,52,53,46,40,80,59,31,29.74,29.64,5,1,0,0.00
2013-8-25,77,60,46,46,41,36,77,51,25,29.85,29.73,6,1,0,0.00
2013-8-26,75,60,50,51,45,40,81,59,34,29.77,29.70,7,2,0,0.00
2013-8-27,72,61,52,47,43,37,74,54,34,29.84,29.75,6,2,0,0.00
2013-8-28,72,58,50,60,53,40,98,84,49,29.87,29.76,6,0,0,0.47
2013-8-29,66,58,52,60,54,51,98,88,67,29.87,29.78,4,1,0,0.09
2013-8-30,73,58,48,53,49,44,98,74,39,30.06,29.81,4,1,0,0.14
2013-8-31,77,58,43,51,47,42,98,70,36,30.08,29.89,5,1,0,0.00
2013-9-1,84,64,45,58,45,35,98,61,18,29.89,29.72,4,1,0,0.37
2013-9-2,68,60,57,58,57,53,98,91,58,29.92,29.77,5,2,0,0.39
2013-9-3,77,59,52,63,56,51,98,90,56,29.97,29.84,3,0,0,1.29
2013-9-4,81,61,50,62,55,50,98,82,38,30.05,29.95,0,0,0,0.01
2013-9-5,77,60,45,54,49,44,98,71,39,30.09,29.96,0,0,0,0.00
2013-9-6,72,59,50,57,51,45,98,76,58,30.02,29.95,0,0,0,0.01
2013-9-7,77,60,50,55,51,47,98,75,38,30.08,29.96,0,0,0,0.05
2013-9-8,82,62,46,54,49,46,98,70,29,30.13,29.87,0,0,0,0.00
2013-9-9,77,60,46,49,45,40,88,62,30,30.01,29.91,0,0,0,0.00
2013-9-10,52,42,37,46,40,37,98,94,81,30.08,29.99,0,0,0,0.00
2013-9-11,79,67,59,51,50,47,68,54,38,30.02,30.00,0,0,0,0.00
2013-9-12,90,68,50,57,49,43,98,58,20,30.02,29.85,0,0,0,0.00
2013-9-13,86,64,45,53,47,42,98,59,22,29.93,29.83,0,0,0,0.00
2013-9-14,86,62,43,52,43,29,98,60,13,29.91,29.79,0,0,0,0.00
2013-9-15,88,68,50,56,48,43,84,55,24,29.81,29.56,0,0,0,0.01
2013-9-16,61,54,46,58,53,46,98,97,85,29.74,29.53,0,0,0,0.00
2013-9-17,59,49,41,49,46,40,98,89,62,29.77,29.70,0,0,0,0.01
2013-9-18,63,47,36,47,40,35,98,79,42,29.89,29.74,2,0,0,0.01
2013-9-19,66,52,39,44,41,37,98,70,41,29.91,29.71,7,2,0,0.00
2013-9-20,70,57,45,48,42,38,80,59,40,29.71,29.42,7,2,0,0.00
2013-9-21,61,53,45,51,45,38,90,74,58,29.47,29.40,4,1,0,0.19
2013-9-22,54,47,41,44,40,36,86,77,65,29.43,29.29,7,2,0,0.00
2013-9-23,55,45,37,45,38,34,90,77,53,29.72,29.38,8,2,0,0.21
2013-9-24,57,42,32,38,33,26,98,76,32,29.79,29.67,4,1,0,0.01
2013-9-25,57,40,30,38,32,29,98,75,38,29.96,29.80,8,1,0,0.00
2013-9-26,55,40,28,40,32,28,98,77,42,30.03,29.81,5,1,0,0.00
2013-9-27,46,41,37,44,39,31,98,90,68,29.80,29.54,3,1,0,1.81
2013-9-28,52,45,41,43,40,36,98,81,67,29.54,28.97,8,3,0,0.00
2013-9-29,57,47,41,42,37,34,98,71,50,29.20,28.97,6,3,0,0.18
2013-9-30,54,44,37,40,36,32,98,74,50,29.51,28.94,6,2,0,0.01
2013-10-1,54,43,32,34,32,28,86,66,42,29.87,29.52,4,1,0,0.00
2013-10-2,50,38,27,38,32,26,98,81,55,30.07,29.87,3,1,0,0.00
2013-10-3,54,38,28,38,31,27,98,79,38,30.26,30.07,4,1,0,0.00
2013-10-4,54,42,30,40,34,27,98,74,49,30.27,30.09,5,2,0,0.94
2013-10-5,63,51,45,45,40,35,75,66,51,30.11,29.97,5,2,0,0.00
2013-10-6,61,53,50,48,43,36,82,70,57,29.97,29.58,4,2,0,0.00
2013-10-7,59,49,43,42,37,33,98,65,43,29.61,29.49,6,2,0,0.02
2013-10-8,45,38,32,42,33,29,98,85,65,30.01,29.61,6,1,0,0.91
2013-10-9,50,38,28,38,33,28,98,84,54,30.02,29.68,5,1,0,0.05
2013-10-10,50,38,30,37,32,27,98,79,45,29.91,29.68,4,1,0,0.02
2013-10-11,50,38,30,34,30,27,98,75,50,29.98,29.91,4,0,0,0.00
2013-10-12,45,37,34,36,33,30,98,86,69,30.13,29.95,3,0,0,0.00
2013-10-13,52,38,30,35,32,27,98,79,46,30.27,30.13,4,1,0,0.00
2013-10-14,57,38,25,39,32,23,98,81,47,30.35,30.27,4,1,0,0.00
2013-10-15,48,38,32,42,36,32,98,93,69,30.27,30.13,3,0,0,0.08
2013-10-16,52,42,32,44,39,32,98,89,60,30.17,30.12,4,1,0,0.02
2013-10-17,50,35,27,40,33,26,98,93,66,30.27,30.15,2,0,0,0.00
2013-10-18,57,38,28,42,34,28,98,87,55,30.19,30.04,2,0,0,0.00
2013-10-19,61,42,30,43,36,30,98,81,48,30.09,30.04,5,1,0,0.00
2013-10-20,64,46,34,46,39,33,98,80,48,30.11,30.07,4,1,0,0.00
2013-10-21,63,44,32,46,38,32,98,85,50,30.12,30.03,4,0,0,0.00
2013-10-22,61,43,30,46,38,30,98,85,51,30.10,30.01,3,0,0,0.00
2013-10-23,64,45,32,48,40,32,98,86,54,30.07,29.97,3,0,0,0.00
2013-10-24,63,44,34,45,38,33,98,84,47,30.03,29.94,2,0,0,0.75
2013-10-25,57,39,28,44,35,-56,98,88,59,30.17,30.03,3,0,0,0.00
2013-10-26,54,40,32,44,37,32,98,90,62,30.20,29.94,3,0,0,0.31
2013-10-27,48,39,30,40,35,24,98,84,67,30.20,29.88,8,2,0,0.27
2013-10-28,39,28,21,25,22,18,89,76,55,30.21,29.98,6,1,0,0.00
2013-10-29,46,30,19,28,22,17,90,76,44,29.99,29.76,3,1,0,0.00
2013-10-30,50,38,28,33,28,24,85,71,49,29.82,29.68,3,1,0,0.00
2013-10-31,52,39,32,38,33,29,98,81,53,29.97,29.72,3,1,0,0.01
2013-11-1,43,35,28,39,34,28,98,94,79,30.00,29.80,2,0,0,0.01
2013-11-2,36,32,28,35,31,26,98,96,90,29.79,29.42,3,1,0,0.05
2013-11-3,34,29,21,30,26,19,98,90,82,29.90,29.61,3,1,0,0.00
2013-11-4,36,25,14,30,22,11,98,89,75,29.97,29.84,1,0,0,0.06
2013-11-5,34,30,27,32,29,26,98,95,85,29.98,29.82,1,0,0,0.00
2013-11-6,34,31,28,33,30,28,98,96,83,30.14,29.96,0,0,0,0.00
2013-11-7,36,33,30,33,32,30,98,97,88,29.95,29.46,2,0,0,0.05
2013-11-8,43,34,28,37,32,28,98,93,77,29.91,29.79,3,1,0,0.46
2013-11-9,37,32,27,33,30,26,98,95,82,30.01,29.91,3,0,0,0.02
2013-11-10,34,31,27,33,30,26,98,94,85,30.22,30.00,2,0,0,0.01
2013-11-11,37,29,19,30,26,17,98,89,73,30.23,29.96,4,2,0,0.02
2013-11-12,46,39,34,38,34,30,90,83,70,30.00,29.87,5,3,0,0.86
2013-11-13,45,38,32,38,35,31,98,88,73,30.11,29.97,4,1,0,0.04
2013-11-14,41,33,28,35,31,28,98,93,72,30.05,29.63,3,0,0,0.15
2013-11-15,32,31,30,32,31,30,98,98,98,29.62,29.38,2,0,0,0.09
2013-11-17,28,28,27,28,28,26,98,98,98,29.48,29.43,0,0,0,0.00
2013-11-18,30,24,14,27,22,10,98,91,83,29.57,29.45,0,0,0,0.00
2013-11-19,14,6,-8,10,1,-13,85,80,73,29.95,29.43,0,0,0,0.00
2013-11-20,19,3,-13,19,-2,-19,84,77,69,30.24,29.96,0,0,0,0.00
2013-11-21,23,18,10,18,13,6,86,82,75,30.46,30.23,0,0,0,0.00
2013-11-22,30,21,14,24,17,11,98,85,73,30.53,30.35,0,0,0,0.00
2013-11-23,30,25,18,26,21,14,92,85,78,30.37,30.07,0,0,0,0.00
2013-11-24,32,25,14,28,23,11,98,90,81,30.16,30.09,0,0,0,0.00
2013-11-25,36,30,27,31,28,24,98,92,80,30.19,30.09,0,0,0,0.00
2013-11-26,36,28,21,31,27,21,98,94,79,30.09,29.94,0,0,0,0.00
2013-11-27,36,26,21,32,24,19,98,94,78,30.00,29.87,0,0,0,0.00
2013-11-28,37,31,23,33,29,22,98,92,79,29.93,29.81,0,0,0,0.02
2013-11-29,37,32,30,35,32,30,98,97,86,30.01,29.91,0,0,0,0.09
2013-11-30,37,34,32,37,33,32,98,98,98,29.99,29.79,3,0,0,0.28
2013-12-1,43,34,30,37,33,30,98,94,78,29.78,29.37,4,1,0,2.08
2013-12-2,30,11,5,30,7,0,98,83,79,30.20,29.38,5,2,0,0.00
2013-12-3,12,8,3,8,4,-2,84,81,77,30.32,30.20,3,1,0,0.00
2013-12-4,14,5,-4,7,0,-9,83,80,72,30.27,30.12,2,0,0,0.00
2013-12-5,12,4,-4,6,-1,-9,80,79,73,30.20,30.08,1,0,0,0.00
2013-12-6,3,-3,-17,-2,-9,-23,80,75,69,30.28,30.18,0,0,0,0.00
2013-12-7,3,-12,-24,-5,-18,-31,76,71,63,30.26,30.08,0,0,0,0.00
2013-12-8,14,6,-8,11,0,-13,86,78,67,30.20,30.04,1,0,0,0.74
2013-12-9,23,17,12,19,13,9,89,85,81,30.06,29.98,2,0,0,0.00
2013-12-10,30,23,18,27,20,15,98,89,80,30.13,30.00,1,0,0,0.00
2013-12-11,27,24,19,26,22,17,98,94,89,30.07,29.85,2,0,0,0.00
2013-12-12,30,28,27,30,27,26,98,98,98,29.85,29.72,0,0,0,0.00
2013-12-13,32,28,23,30,28,22,98,97,87,30.03,29.80,0,0,0,0.00
2013-12-14,36,32,30,35,32,30,98,98,88,30.01,29.79,1,0,0,0.12
2013-12-15,37,30,19,33,28,19,98,93,83,30.00,29.76,3,1,0,0.13
2013-12-16,32,25,18,30,23,15,98,94,84,30.14,29.87,4,1,0,0.00
2013-12-17,43,33,28,34,28,19,98,78,65,29.86,29.60,4,1,0,0.98
2013-12-18,30,20,7,30,17,4,98,87,73,30.12,29.72,4,1,0,0.00
2013-12-19,14,8,-2,9,3,-7,86,81,76,30.15,29.76,3,1,0,0.00
2013-12-20,21,18,14,18,15,9,89,87,80,29.76,29.35,3,1,0,0.00
2013-12-21,28,22,18,25,20,15,98,89,81,29.90,29.61,0,0,0,0.00
2013-12-22,32,27,21,30,26,19,98,95,85,29.98,29.76,0,0,0,0.68
2013-12-23,32,28,21,32,28,20,98,96,86,30.12,29.70,3,0,0,0.00
2013-12-24,30,18,10,30,15,7,98,90,86,30.30,30.12,2,0,0,0.00
2013-12-25,32,26,12,28,24,9,98,92,84,30.26,30.01,3,1,0,0.00
2013-12-26,36,33,28,35,32,26,98,97,90,30.02,29.84,4,2,0,0.66
2013-12-27,41,36,32,35,32,26,98,84,72,30.09,29.65,4,2,0,1.31
2013-12-28,34,29,23,27,25,20,97,82,68,30.30,30.07,3,0,0,0.00
2013-12-29,37,29,21,33,28,21,98,95,82,30.09,29.94,3,0,0,0.04
2013-12-30,32,30,21,32,30,21,98,98,98,30.01,29.71,0,0,0,0.00